LAN146 SBGR-SBRJ

Flight info

Callsign LAN146
Flight time 1h 17m
Altitude 23000
Route EKOP1A NIBRU UZ171 KEVUN ASAL1A
Aircraft A320/M-VGDW/C

Departure

Time 2026-05-04 01:32
Airport São Paulo/Guarulhos–Governor André Franco Montoro International Airport (SBGR)

Arrival

Time 2026-05-04 02:50
Airport Santos Dumont Airport (SBRJ)
Time Latitude Longitude Altitude Speed Heading
2026-05-04 00:46 -23.42784 -46.47960 2448 ft 0 kts 264°
2026-05-04 01:21 -23.42783 -46.47960 2448 ft 0 kts 264°
2026-05-04 01:22 -23.42782 -46.47946 2448 ft 2 kts 263°
2026-05-04 01:22 -23.42780 -46.47929 2448 ft 1 kts 264°
2026-05-04 01:22 -23.42780 -46.47919 2448 ft 2 kts 257°
2026-05-04 01:23 -23.42773 -46.47905 2448 ft 2 kts 228°
2026-05-04 01:23 -23.42765 -46.47897 2448 ft 2 kts 212°
2026-05-04 01:23 -23.42751 -46.47892 2448 ft 2 kts 184°
2026-05-04 01:23 -23.42742 -46.47892 2448 ft 1 kts 169°
2026-05-04 01:24 -23.42751 -46.47890 2448 ft 4 kts 169°
2026-05-04 01:24 -23.42771 -46.47886 2448 ft 0 kts 168°
2026-05-04 01:27 -23.42773 -46.47886 2448 ft 0 kts 168°
2026-05-04 01:27 -23.42797 -46.47871 2448 ft 7 kts 137°
2026-05-04 01:27 -23.42858 -46.47846 2447 ft 10 kts 170°
2026-05-04 01:27 -23.42946 -46.47829 2447 ft 13 kts 169°
2026-05-04 01:28 -23.43020 -46.47827 2447 ft 10 kts 211°
2026-05-04 01:28 -23.43050 -46.47897 2447 ft 10 kts 251°
2026-05-04 01:28 -23.43074 -46.47979 2447 ft 12 kts 254°
2026-05-04 01:28 -23.43100 -46.48085 2447 ft 15 kts 253°
2026-05-04 01:29 -23.43132 -46.48198 2446 ft 13 kts 254°
2026-05-04 01:29 -23.43156 -46.48288 2447 ft 10 kts 254°
2026-05-04 01:29 -23.43175 -46.48358 2446 ft 9 kts 254°
2026-05-04 01:29 -23.43220 -46.48392 2446 ft 7 kts 170°
2026-05-04 01:30 -23.43255 -46.48381 2447 ft 4 kts 164°
2026-05-04 01:30 -23.43294 -46.48370 2448 ft 8 kts 163°
2026-05-04 01:30 -23.43351 -46.48351 2449 ft 6 kts 163°
2026-05-04 01:30 -23.43381 -46.48342 2450 ft 3 kts 165°
2026-05-04 01:31 -23.43410 -46.48334 2451 ft 5 kts 163°
2026-05-04 01:31 -23.43422 -46.48306 2452 ft 3 kts 71°
2026-05-04 01:31 -23.43421 -46.48303 2452 ft 0 kts 71°
2026-05-04 01:31 -23.43359 -46.48088 2452 ft 66 kts 73°
2026-05-04 01:32 -23.43162 -46.47356 2453 ft 131 kts 73°
2026-05-04 01:32 -23.42859 -46.46206 2535 ft 176 kts 73°
2026-05-04 01:32 -23.42516 -46.44890 3059 ft 186 kts 71°
2026-05-04 01:32 -23.42132 -46.43511 3578 ft 195 kts 69°
2026-05-04 01:33 -23.41692 -46.42043 3940 ft 212 kts 69°
2026-05-04 01:33 -23.41220 -46.40471 4296 ft 229 kts 69°
2026-05-04 01:33 -23.40700 -46.38704 4575 ft 254 kts 69°
2026-05-04 01:33 -23.40246 -46.36788 4993 ft 275 kts 82°
2026-05-04 01:34 -23.40407 -46.34640 5454 ft 294 kts 106°
2026-05-04 01:34 -23.41088 -46.32488 6152 ft 301 kts 110°
2026-05-04 01:34 -23.41828 -46.30360 6842 ft 308 kts 111°
2026-05-04 01:34 -23.42583 -46.28163 7609 ft 311 kts 110°
2026-05-04 01:35 -23.43323 -46.25948 8368 ft 315 kts 109°
2026-05-04 01:35 -23.43944 -46.23656 9110 ft 318 kts 103°
2026-05-04 01:35 -23.44408 -46.21252 9807 ft 323 kts 101°
2026-05-04 01:35 -23.44821 -46.18842 10456 ft 330 kts 100°
2026-05-04 01:36 -23.45248 -46.16325 10852 ft 345 kts 101°
2026-05-04 01:36 -23.45690 -46.13721 11399 ft 354 kts 101°
2026-05-04 01:36 -23.46139 -46.11106 12092 ft 356 kts 101°
2026-05-04 01:36 -23.46600 -46.08435 12755 ft 359 kts 101°
2026-05-04 01:37 -23.47065 -46.05734 13390 ft 363 kts 101°
2026-05-04 01:37 -23.47537 -46.03009 14038 ft 365 kts 101°
2026-05-04 01:37 -23.48010 -46.00275 14633 ft 369 kts 101°
2026-05-04 01:37 -23.48484 -45.97533 15189 ft 374 kts 101°
2026-05-04 01:38 -23.48972 -45.94704 15779 ft 377 kts 101°
2026-05-04 01:38 -23.49458 -45.91894 16372 ft 380 kts 101°
2026-05-04 01:38 -23.49955 -45.89057 16924 ft 383 kts 101°
2026-05-04 01:38 -23.50459 -45.86198 17490 ft 386 kts 101°
2026-05-04 01:39 -23.50962 -45.83340 17993 ft 390 kts 101°
2026-05-04 01:39 -23.51478 -45.80392 18498 ft 393 kts 101°
2026-05-04 01:39 -23.51988 -45.77474 18999 ft 397 kts 102°
2026-05-04 01:39 -23.52512 -45.74484 19491 ft 400 kts 102°
2026-05-04 01:40 -23.53038 -45.71481 19970 ft 404 kts 102°
2026-05-04 01:40 -23.53561 -45.68489 20428 ft 408 kts 102°
2026-05-04 01:40 -23.54099 -45.65406 20900 ft 411 kts 102°
2026-05-04 01:40 -23.54635 -45.62326 21384 ft 414 kts 102°
2026-05-04 01:41 -23.55170 -45.59247 21861 ft 417 kts 102°
2026-05-04 01:41 -23.55716 -45.56110 22301 ft 420 kts 102°
2026-05-04 01:41 -23.56259 -45.52968 22752 ft 423 kts 102°
2026-05-04 01:41 -23.56795 -45.49826 22983 ft 425 kts 100°
2026-05-04 01:42 -23.57003 -45.46596 22992 ft 426 kts 88°
2026-05-04 01:42 -23.56673 -45.43384 22994 ft 425 kts 78°
2026-05-04 01:42 -23.56033 -45.40255 22998 ft 425 kts 75°
2026-05-04 01:42 -23.55324 -45.37095 22996 ft 425 kts 74°
2026-05-04 01:43 -23.54612 -45.33941 22995 ft 424 kts 74°
2026-05-04 01:43 -23.53920 -45.30803 22992 ft 425 kts 74°
2026-05-04 01:43 -23.53240 -45.27671 22991 ft 425 kts 75°
2026-05-04 01:43 -23.52566 -45.24532 22983 ft 424 kts 75°
2026-05-04 01:44 -23.51903 -45.21413 22981 ft 423 kts 75°
2026-05-04 01:44 -23.51239 -45.18288 22979 ft 425 kts 75°
2026-05-04 01:44 -23.50567 -45.15140 22980 ft 424 kts 75°
2026-05-04 01:44 -23.49900 -45.12014 22980 ft 425 kts 75°
2026-05-04 01:45 -23.49230 -45.08865 22974 ft 425 kts 75°
2026-05-04 01:45 -23.48556 -45.05716 22966 ft 424 kts 75°
2026-05-04 01:45 -23.47222 -44.99468 22958 ft 423 kts 75°
2026-05-04 01:46 -23.46547 -44.96325 22950 ft 424 kts 75°
2026-05-04 01:46 -23.45867 -44.93202 22955 ft 424 kts 75°
2026-05-04 01:46 -23.45174 -44.90070 22960 ft 425 kts 74°
2026-05-04 01:46 -23.44476 -44.86924 22804 ft 424 kts 74°
2026-05-04 01:47 -23.43787 -44.83830 22526 ft 420 kts 74°
2026-05-04 01:47 -23.43091 -44.80709 22243 ft 417 kts 74°
2026-05-04 01:47 -23.42413 -44.77668 21872 ft 415 kts 74°
2026-05-04 01:47 -23.41725 -44.74582 21441 ft 413 kts 75°
2026-05-04 01:48 -23.41053 -44.71576 21013 ft 411 kts 74°
2026-05-04 01:48 -23.40382 -44.68567 20571 ft 409 kts 74°
2026-05-04 01:48 -23.39709 -44.65552 20117 ft 407 kts 75°
2026-05-04 01:48 -23.39041 -44.62565 19674 ft 405 kts 74°
2026-05-04 01:49 -23.38370 -44.59577 19218 ft 403 kts 74°
2026-05-04 01:49 -23.37695 -44.56626 18916 ft 396 kts 75°
2026-05-04 01:49 -23.37093 -44.53719 18911 ft 393 kts 76°
2026-05-04 01:49 -23.36462 -44.50772 18841 ft 400 kts 74°
2026-05-04 01:50 -23.35777 -44.47825 18358 ft 406 kts 73°
2026-05-04 01:50 -23.35071 -44.44811 17732 ft 408 kts 73°
2026-05-04 01:50 -23.34235 -44.41882 17235 ft 405 kts 68°
2026-05-04 01:50 -23.33155 -44.39059 16818 ft 400 kts 63°
2026-05-04 01:51 -23.31978 -44.36301 16375 ft 397 kts 62°
2026-05-04 01:51 -23.30802 -44.33605 15904 ft 394 kts 61°
2026-05-04 01:51 -23.29621 -44.30890 15447 ft 392 kts 62°
2026-05-04 01:51 -23.28465 -44.28221 15022 ft 388 kts 62°
2026-05-04 01:52 -23.27316 -44.25561 14583 ft 385 kts 62°
2026-05-04 01:52 -23.26182 -44.22929 14145 ft 383 kts 62°
2026-05-04 01:52 -23.25063 -44.20330 13690 ft 380 kts 62°
2026-05-04 01:52 -23.23941 -44.17726 13233 ft 378 kts 62°
2026-05-04 01:53 -23.22820 -44.15125 12802 ft 374 kts 62°
2026-05-04 01:53 -23.21721 -44.12574 12360 ft 371 kts 62°
2026-05-04 01:53 -23.20624 -44.10035 11906 ft 368 kts 62°
2026-05-04 01:53 -23.19563 -44.07584 11302 ft 358 kts 61°
2026-05-04 01:54 -23.18458 -44.05150 10618 ft 354 kts 60°
2026-05-04 01:54 -23.17367 -44.02796 10560 ft 337 kts 60°
2026-05-04 01:54 -23.16337 -44.00573 10554 ft 321 kts 60°
2026-05-04 01:54 -23.15349 -43.98403 10527 ft 316 kts 61°
2026-05-04 01:55 -23.14416 -43.96234 10482 ft 316 kts 62°
2026-05-04 01:55 -23.13498 -43.94071 10406 ft 315 kts 62°
2026-05-04 01:55 -23.12572 -43.91887 10286 ft 314 kts 62°
2026-05-04 01:55 -23.11655 -43.89732 10089 ft 312 kts 62°
2026-05-04 01:56 -23.10737 -43.87584 9866 ft 310 kts 62°
2026-05-04 01:56 -23.09840 -43.85487 9725 ft 308 kts 62°
2026-05-04 01:56 -23.08930 -43.83360 9652 ft 307 kts 62°
2026-05-04 01:56 -23.08022 -43.81243 9576 ft 308 kts 62°
2026-05-04 01:57 -23.07120 -43.79138 9342 ft 307 kts 62°
2026-05-04 01:57 -23.06217 -43.77034 9036 ft 306 kts 62°
2026-05-04 01:57 -23.05314 -43.74925 8737 ft 304 kts 62°
2026-05-04 01:57 -23.04422 -43.72845 8386 ft 302 kts 62°
2026-05-04 01:58 -23.03534 -43.70778 8038 ft 300 kts 61°
2026-05-04 01:58 -23.02658 -43.68749 7725 ft 297 kts 61°
2026-05-04 01:58 -23.01769 -43.66713 7393 ft 295 kts 61°
2026-05-04 01:58 -23.00892 -43.64712 7066 ft 292 kts 61°
2026-05-04 01:59 -23.00021 -43.62725 6741 ft 290 kts 61°
2026-05-04 01:59 -22.99161 -43.60766 6553 ft 282 kts 61°
2026-05-04 01:59 -22.98323 -43.58859 6391 ft 271 kts 61°
2026-05-04 01:59 -22.97519 -43.57024 6226 ft 257 kts 60°
2026-05-04 02:00 -22.96783 -43.55338 6082 ft 244 kts 60°
2026-05-04 02:00 -22.96047 -43.53674 5950 ft 242 kts 60°
2026-05-04 02:00 -22.95321 -43.52030 5810 ft 240 kts 60°
2026-05-04 02:00 -22.94607 -43.50369 5729 ft 240 kts 66°
2026-05-04 02:01 -22.94462 -43.48566 5710 ft 249 kts 104°
2026-05-04 02:01 -22.95378 -43.46981 5715 ft 252 kts 143°
2026-05-04 02:01 -22.96996 -43.46241 5720 ft 250 kts 178°
2026-05-04 02:01 -22.98676 -43.46523 5725 ft 242 kts 211°
2026-05-04 02:02 -22.99939 -43.47663 5723 ft 231 kts 242°
2026-05-04 02:02 -23.00629 -43.49224 5731 ft 228 kts 252°
2026-05-04 02:02 -23.01250 -43.50804 5724 ft 228 kts 251°
2026-05-04 02:02 -23.01893 -43.52385 5722 ft 228 kts 250°
2026-05-04 02:03 -23.02554 -43.53965 5722 ft 228 kts 249°
2026-05-04 02:03 -23.03185 -43.55617 5726 ft 245 kts 261°
2026-05-04 02:03 -23.03083 -43.57490 5721 ft 256 kts 295°
2026-05-04 02:03 -23.01948 -43.58970 5727 ft 257 kts 329°
2026-05-04 02:04 -23.00227 -43.59432 5728 ft 262 kts
2026-05-04 02:04 -22.98509 -43.58691 5721 ft 271 kts 38°
2026-05-04 02:04 -22.97406 -43.56992 5727 ft 280 kts 63°
2026-05-04 02:04 -22.96610 -43.55060 5720 ft 280 kts 62°
2026-05-04 02:05 -22.95792 -43.53148 5720 ft 279 kts 62°
2026-05-04 02:05 -22.94958 -43.51215 5723 ft 280 kts 62°
2026-05-04 02:05 -22.94316 -43.49226 5706 ft 284 kts 82°
2026-05-04 02:05 -22.94639 -43.47111 5710 ft 291 kts 116°
2026-05-04 02:06 -22.95984 -43.45477 5712 ft 292 kts 150°
2026-05-04 02:06 -22.97928 -43.44871 5719 ft 288 kts 185°
2026-05-04 02:06 -22.99804 -43.45466 5719 ft 279 kts 218°
2026-05-04 02:06 -23.01115 -43.46969 5718 ft 270 kts 245°
2026-05-04 02:07 -23.01833 -43.48853 5725 ft 268 kts 253°
2026-05-04 02:07 -23.02515 -43.50756 5721 ft 268 kts 252°
2026-05-04 02:07 -23.03236 -43.52606 5717 ft 269 kts 250°
2026-05-04 02:07 -23.04001 -43.54473 5716 ft 268 kts 252°
2026-05-04 02:08 -23.04339 -43.56411 5695 ft 260 kts 281°
2026-05-04 02:08 -23.03652 -43.58210 5710 ft 258 kts 310°
2026-05-04 02:08 -23.02252 -43.59389 5717 ft 258 kts 336°
2026-05-04 02:08 -23.00450 -43.59689 5715 ft 264 kts
2026-05-04 02:09 -22.98718 -43.58958 5713 ft 272 kts 35°
2026-05-04 02:09 -22.97535 -43.57338 5716 ft 280 kts 62°
2026-05-04 02:09 -22.96738 -43.55405 5712 ft 280 kts 63°
2026-05-04 02:09 -22.95917 -43.53456 5715 ft 280 kts 62°
2026-05-04 02:10 -22.95100 -43.51549 5715 ft 280 kts 62°
2026-05-04 02:10 -22.94368 -43.49568 5705 ft 284 kts 76°
2026-05-04 02:10 -22.94504 -43.47434 5703 ft 290 kts 110°
2026-05-04 02:10 -22.95705 -43.45669 5709 ft 293 kts 144°
2026-05-04 02:11 -22.97588 -43.44865 5712 ft 290 kts 179°
2026-05-04 02:11 -22.99517 -43.45261 5717 ft 281 kts 212°
2026-05-04 02:11 -23.00950 -43.46655 5721 ft 272 kts 241°
2026-05-04 02:11 -23.01723 -43.48493 5731 ft 268 kts 253°
2026-05-04 02:12 -23.02399 -43.50394 5726 ft 268 kts 251°
2026-05-04 02:12 -23.03126 -43.52281 5723 ft 269 kts 250°
2026-05-04 02:12 -23.03881 -43.54125 5724 ft 269 kts 250°
2026-05-04 02:12 -23.04364 -43.56068 5704 ft 263 kts 275°
2026-05-04 02:13 -23.03840 -43.57930 5716 ft 259 kts 305°
2026-05-04 02:13 -23.02532 -43.59246 5725 ft 258 kts 332°
2026-05-04 02:13 -23.00761 -43.59710 5724 ft 263 kts
2026-05-04 02:13 -22.98998 -43.59155 5721 ft 270 kts 29°
2026-05-04 02:14 -22.97701 -43.57675 5718 ft 279 kts 58°
2026-05-04 02:14 -22.96874 -43.55746 5722 ft 280 kts 63°
2026-05-04 02:14 -22.96056 -43.53799 5724 ft 280 kts 62°
2026-05-04 02:14 -22.95242 -43.51889 5722 ft 280 kts 62°
2026-05-04 02:15 -22.94462 -43.49937 5718 ft 282 kts 70°
2026-05-04 02:15 -22.94396 -43.47811 5709 ft 290 kts 104°
2026-05-04 02:15 -22.95443 -43.45906 5714 ft 293 kts 139°
2026-05-04 02:15 -22.97226 -43.44920 5717 ft 290 kts 173°
2026-05-04 02:16 -22.99205 -43.45113 5720 ft 283 kts 207°
2026-05-04 02:16 -23.00746 -43.46353 5722 ft 274 kts 236°
2026-05-04 02:16 -23.01623 -43.48154 5728 ft 269 kts 253°
2026-05-04 02:16 -23.02304 -43.50073 5724 ft 269 kts 252°
2026-05-04 02:17 -23.03019 -43.51951 5717 ft 270 kts 250°
2026-05-04 02:17 -23.03781 -43.53830 5719 ft 269 kts 250°
2026-05-04 02:17 -23.04373 -43.55738 5698 ft 264 kts 269°
2026-05-04 02:17 -23.04014 -43.57649 5706 ft 258 kts 300°
2026-05-04 02:18 -23.02820 -43.59075 5714 ft 258 kts 327°
2026-05-04 02:18 -23.01108 -43.59708 5718 ft 262 kts 355°
2026-05-04 02:18 -22.99300 -43.59341 5715 ft 269 kts 24°
2026-05-04 02:18 -22.97881 -43.58009 5710 ft 279 kts 54°
2026-05-04 02:19 -22.97010 -43.56084 5714 ft 281 kts 63°
2026-05-04 02:19 -22.96207 -43.54157 5715 ft 280 kts 62°
2026-05-04 02:19 -22.95390 -43.52235 5715 ft 280 kts 62°
2026-05-04 02:19 -22.94565 -43.50299 5716 ft 279 kts 62°
2026-05-04 02:20 -22.93754 -43.48388 5540 ft 278 kts 62°
2026-05-04 02:20 -22.92943 -43.46468 5283 ft 276 kts 63°
2026-05-04 02:20 -22.92147 -43.44582 4939 ft 274 kts 63°
2026-05-04 02:20 -22.91351 -43.42706 4634 ft 271 kts 63°
2026-05-04 02:21 -22.90562 -43.40850 4422 ft 267 kts 63°
2026-05-04 02:21 -22.89805 -43.39059 3976 ft 255 kts 64°
2026-05-04 02:21 -22.89074 -43.37338 3430 ft 245 kts 64°
2026-05-04 02:21 -22.88445 -43.35690 3221 ft 229 kts 76°
2026-05-04 02:22 -22.88284 -43.34040 3184 ft 209 kts 89°
2026-05-04 02:22 -22.88331 -43.32506 2989 ft 198 kts 91°
2026-05-04 02:22 -22.88395 -43.31051 2794 ft 188 kts 91°
2026-05-04 02:22 -22.88455 -43.29651 2523 ft 187 kts 91°
2026-05-04 02:23 -22.88509 -43.28182 2441 ft 196 kts 91°
2026-05-04 02:23 -22.88569 -43.26751 2484 ft 179 kts 95°
2026-05-04 02:23 -22.88873 -43.25510 2343 ft 166 kts 109°
2026-05-04 02:23 -22.89294 -43.24377 2105 ft 158 kts 112°
2026-05-04 02:24 -22.89712 -43.23298 1906 ft 148 kts 112°
2026-05-04 02:24 -22.90105 -43.22272 1762 ft 144 kts 112°
2026-05-04 02:24 -22.90486 -43.21308 1559 ft 137 kts 117°
2026-05-04 02:24 -22.91051 -43.20471 1387 ft 136 kts 134°
2026-05-04 02:25 -22.91799 -43.19852 1223 ft 136 kts 149°
2026-05-04 02:25 -22.92685 -43.19477 1069 ft 135 kts 165°
2026-05-04 02:25 -22.93614 -43.19267 898 ft 134 kts 161°
2026-05-04 02:25 -22.94404 -43.18743 710 ft 134 kts 130°
2026-05-04 02:26 -22.94764 -43.17825 531 ft 135 kts 94°
2026-05-04 02:26 -22.94535 -43.16843 358 ft 138 kts 58°
2026-05-04 02:26 -22.93782 -43.16206 278 ft 141 kts 14°
2026-05-04 02:26 -22.92803 -43.16278 137 ft 139 kts 355°
2026-05-04 02:27 -22.91807 -43.16309 82 ft 141 kts 357°
2026-05-04 02:27 -22.90759 -43.16372 286 ft 162 kts 356°
2026-05-04 02:27 -22.89609 -43.16430 992 ft 168 kts
2026-05-04 02:27 -22.88584 -43.16008 1847 ft 155 kts 37°
2026-05-04 02:28 -22.87750 -43.15227 2313 ft 165 kts 44°
2026-05-04 02:28 -22.86953 -43.14269 2807 ft 174 kts 58°
2026-05-04 02:28 -22.86542 -43.13003 3322 ft 184 kts 82°
2026-05-04 02:28 -22.86675 -43.11606 3870 ft 193 kts 103°
2026-05-04 02:29 -22.87199 -43.10204 4315 ft 208 kts 114°
2026-05-04 02:29 -22.87879 -43.08752 4698 ft 224 kts 115°
2026-05-04 02:29 -22.88654 -43.07206 5069 ft 239 kts 117°
2026-05-04 02:29 -22.89496 -43.05638 5201 ft 245 kts 118°
2026-05-04 02:30 -22.90388 -43.04044 5168 ft 243 kts 120°
2026-05-04 02:30 -22.91292 -43.02470 5199 ft 244 kts 120°
2026-05-04 02:30 -22.92203 -43.00898 5212 ft 245 kts 120°
2026-05-04 02:30 -22.93105 -42.99350 5220 ft 244 kts 121°
2026-05-04 02:31 -22.94015 -42.97791 5220 ft 244 kts 121°
2026-05-04 02:31 -22.94937 -42.96214 5255 ft 244 kts 121°
2026-05-04 02:31 -22.95847 -42.94653 5215 ft 244 kts 121°
2026-05-04 02:31 -22.96765 -42.93082 5227 ft 244 kts 120°
2026-05-04 02:32 -22.97682 -42.91512 5242 ft 245 kts 120°
2026-05-04 02:32 -22.98590 -42.89951 5242 ft 245 kts 120°
2026-05-04 02:32 -22.99511 -42.88371 5237 ft 244 kts 120°
2026-05-04 02:32 -23.00422 -42.86809 5232 ft 245 kts 120°
2026-05-04 02:33 -23.01329 -42.85251 5229 ft 245 kts 121°
2026-05-04 02:33 -23.02248 -42.83672 5233 ft 245 kts 121°
2026-05-04 02:33 -23.03152 -42.82120 5230 ft 245 kts 121°
2026-05-04 02:33 -23.04093 -42.80575 5221 ft 240 kts 128°
2026-05-04 02:34 -23.05231 -42.79304 5215 ft 227 kts 137°
2026-05-04 02:34 -23.06420 -42.78173 5238 ft 224 kts 138°
2026-05-04 02:34 -23.07606 -42.77043 5365 ft 225 kts 137°
2026-05-04 02:34 -23.08762 -42.75908 5413 ft 226 kts 137°
2026-05-04 02:35 -23.09931 -42.74734 5435 ft 227 kts 136°
2026-05-04 02:35 -23.11092 -42.73553 5439 ft 226 kts 136°
2026-05-04 02:35 -23.12143 -42.72279 5428 ft 225 kts 114°
2026-05-04 02:35 -23.12477 -42.70638 5438 ft 219 kts 79°
2026-05-04 02:36 -23.11988 -42.69115 5452 ft 211 kts 49°
2026-05-04 02:36 -23.10922 -42.68084 5453 ft 204 kts 22°
2026-05-04 02:36 -23.09559 -42.67715 5452 ft 199 kts 356°
2026-05-04 02:36 -23.08225 -42.68059 5447 ft 196 kts 330°
2026-05-04 02:37 -23.07183 -42.69014 5449 ft 198 kts 306°
2026-05-04 02:37 -23.06622 -42.70374 5460 ft 200 kts 286°
2026-05-04 02:37 -23.06686 -42.71878 5431 ft 207 kts 248°
2026-05-04 02:37 -23.07444 -42.73260 5463 ft 210 kts 243°
2026-05-04 02:38 -23.08192 -42.74629 5452 ft 210 kts 244°
2026-05-04 02:38 -23.08915 -42.76007 5450 ft 210 kts 245°
2026-05-04 02:38 -23.09629 -42.77398 5449 ft 210 kts 246°
2026-05-04 02:38 -23.10346 -42.78808 5447 ft 210 kts 246°
2026-05-04 02:39 -23.11044 -42.80189 5449 ft 210 kts 246°
2026-05-04 02:39 -23.11753 -42.81594 5447 ft 210 kts 246°
2026-05-04 02:39 -23.12458 -42.82993 5445 ft 209 kts 245°
2026-05-04 02:39 -23.13157 -42.84376 5443 ft 209 kts 245°
2026-05-04 02:40 -23.13861 -42.85770 5444 ft 208 kts 246°
2026-05-04 02:40 -23.14561 -42.87161 5442 ft 209 kts 246°
2026-05-04 02:40 -23.15256 -42.88544 5444 ft 208 kts 246°
2026-05-04 02:40 -23.15959 -42.89944 5443 ft 208 kts 246°
2026-05-04 02:41 -23.16652 -42.91318 5444 ft 208 kts 246°
2026-05-04 02:41 -23.17356 -42.92720 5442 ft 209 kts 246°
2026-05-04 02:41 -23.18054 -42.94112 5442 ft 209 kts 246°
2026-05-04 02:41 -23.18760 -42.95513 5443 ft 209 kts 246°
2026-05-04 02:42 -23.19462 -42.96911 5443 ft 210 kts 245°
2026-05-04 02:42 -23.20145 -42.98312 5440 ft 209 kts 253°
2026-05-04 02:42 -23.20380 -42.99831 5429 ft 201 kts 280°
2026-05-04 02:42 -23.19968 -43.01265 5409 ft 195 kts 303°
2026-05-04 02:43 -23.19085 -43.02362 5154 ft 193 kts 320°
2026-05-04 02:43 -23.18021 -43.03305 4832 ft 195 kts 321°
2026-05-04 02:43 -23.16977 -43.04218 4571 ft 194 kts 321°
2026-05-04 02:43 -23.15914 -43.05155 4283 ft 195 kts 321°
2026-05-04 02:44 -23.14852 -43.06095 3997 ft 196 kts 321°
2026-05-04 02:44 -23.13788 -43.07042 3796 ft 195 kts 321°
2026-05-04 02:44 -23.12724 -43.07990 3668 ft 196 kts 321°
2026-05-04 02:44 -23.11704 -43.08901 3571 ft 185 kts 322°
2026-05-04 02:45 -23.10719 -43.09782 3351 ft 179 kts 322°
2026-05-04 02:45 -23.09757 -43.10620 3150 ft 172 kts 328°
2026-05-04 02:45 -23.08699 -43.11127 2988 ft 160 kts 348°
2026-05-04 02:45 -23.07632 -43.11332 2904 ft 150 kts 353°
2026-05-04 02:46 -23.06602 -43.11487 2844 ft 149 kts 354°
2026-05-04 02:46 -23.05565 -43.11643 2757 ft 148 kts 354°
2026-05-04 02:46 -23.04526 -43.11803 2635 ft 149 kts 353°
2026-05-04 02:46 -23.03494 -43.11963 2390 ft 149 kts 353°
2026-05-04 02:47 -23.02457 -43.12128 2196 ft 150 kts 353°
2026-05-04 02:47 -23.01418 -43.12294 2001 ft 151 kts 353°
2026-05-04 02:47 -23.00357 -43.12463 1808 ft 152 kts 353°
2026-05-04 02:47 -22.99302 -43.12631 1641 ft 150 kts 354°
2026-05-04 02:48 -22.98301 -43.12793 1420 ft 141 kts 353°
2026-05-04 02:48 -22.97324 -43.12949 1243 ft 140 kts 354°
2026-05-04 02:48 -22.96359 -43.13101 1070 ft 139 kts 353°
2026-05-04 02:48 -22.95459 -43.13487 878 ft 140 kts 320°
2026-05-04 02:49 -22.94841 -43.14322 723 ft 141 kts 304°
2026-05-04 02:49 -22.94311 -43.15226 543 ft 141 kts 302°
2026-05-04 02:49 -22.93667 -43.16013 348 ft 139 kts 333°
2026-05-04 02:49 -22.92726 -43.16212 200 ft 137 kts
2026-05-04 02:50 -22.91769 -43.16238 48 ft 137 kts 358°
2026-05-04 02:50 -22.90971 -43.16288 22 ft 74 kts 359°
2026-05-04 02:50 -22.90703 -43.16304 22 ft 24 kts 357°
2026-05-04 02:50 -22.90563 -43.16314 22 ft 15 kts 355°
2026-05-04 02:51 -22.90533 -43.16318 22 ft 1 kts 346°
2026-05-04 02:51 -22.90516 -43.16325 22 ft 3 kts 332°
2026-05-04 02:51 -22.90496 -43.16350 22 ft 4 kts 287°
2026-05-04 02:51 -22.90493 -43.16380 23 ft 3 kts 271°
2026-05-04 02:52 -22.90494 -43.16432 25 ft 10 kts 265°
2026-05-04 02:52 -22.90501 -43.16516 28 ft 8 kts 263°
2026-05-04 02:52 -22.90533 -43.16558 28 ft 8 kts 168°
2026-05-04 02:52 -22.90595 -43.16553 28 ft 9 kts 178°
2026-05-04 02:53 -22.90663 -43.16549 28 ft 10 kts 176°
2026-05-04 02:53 -22.90737 -43.16544 28 ft 11 kts 176°
2026-05-04 02:53 -22.90817 -43.16546 27 ft 11 kts 191°
2026-05-04 02:53 -22.90899 -43.16548 27 ft 12 kts 177°
2026-05-04 02:54 -22.90988 -43.16542 27 ft 13 kts 176°
2026-05-04 02:54 -22.91082 -43.16533 27 ft 13 kts 167°
2026-05-04 02:54 -22.91147 -43.16517 26 ft 4 kts 175°
2026-05-04 02:54 -22.91172 -43.16528 26 ft 3 kts 251°
2026-05-04 02:55 -22.91171 -43.16560 27 ft 0 kts 272°
2026-05-04 02:55 -22.91172 -43.16581 28 ft 3 kts 268°
2026-05-04 02:55 -22.91172 -43.16587 28 ft 0 kts 267°
2026-05-04 02:56 -22.91172 -43.16585 28 ft 0 kts 267°